Location: Newark
(48.2308°N, 120.8549°W)
Time: 14:55:29
(UTC+00:00)

Transit 2A Rocket - Pass Details

Date: 29 May 2020
Orbit: 584 x 919 km, 66.7° (Epoch: 07 July)

Event Time Altitude Azimuth Distance (km) Brightness Sun altitude
Rises 13:49:21 0° 326° (NW) 3,449 8.2 14.2°
Reaches altitude 10° 13:52:03 10° 336° (NNW) 2,549 7.7 14.6°
Maximum altitude 13:57:25 33° 40° (NE) 1,486 7.6 15.5°
Drops below altitude 10° 14:02:54 10° 103° (ESE) 2,614 9.1 16.4°
Sets 14:05:42 0° 113° (ESE) 3,549 9.3 16.8°
